Tracking 31027 objects as of 19-Jul-2025
HD Live streaming from Space Station
objects crossing your sky now

ARKTIKA-M 2

Track ARKTIKA-M 2 now!


NORAD ID: 58584
Int'l Code: 2023-198A
Perigee: 1,945.2 km
Apogee: 38,427.1 km
Inclination: 63.2 °
Period: 717.8 minutes
Semi major axis: 26557 km
RCS: Unknown
Launch date: December 16, 2023
Source: Commonwealth of Independent States (former USSR) (CIS)
Launch site: TYURATAM MISSILE AND SPACE COMPLEX (TTMTR)
Your satellite tracking list
SKOLTECH-B2
Track 1 satellite(s)




NASA's NSSDC Master Catalog

Two Line Element Set (TLE):
1 58584U 23198A   25196.78319276  .00000232  00000-0  00000-0 0  9996
2 58584  63.2311 191.2269 6868568 268.7172  18.5435  2.00600181 11576
Source of the keplerian elements: AFSPC